MPEC 2004-B45 : 2004 BU58

The following Minor Planet Electronic Circular may be linked-to from your own Web pages, but must not otherwise be redistributed electronically.


Read MPEC 2004-B44 Read MPEC 2004-B46


M.P.E.C. 2004-B45                                Issued 2004 Jan. 25, 02:46 UT

     The Minor Planet Electronic Circulars contain information on unusual
         minor planets and routine data on comets.  They are published
   on behalf of Commission 20 of the International Astronomical Union by the
          Minor Planet Center, Smithsonian Astrophysical Observatory,
                          Cambridge, MA 02138, U.S.A.

         Supported in part by the Steven and Michele Kirsch Foundation
             Prepared using the Tamkin Foundation Computer Network

                              MPC@CFA.HARVARD.EDU
          URL http://cfa-www.harvard.edu/iau/mpc.html  ISSN 1523-6714

                                   2004 BU58

Observations:
     K04B58U* C2004 01 23.32856 09 22 41.62 +37 04 02.1          19.8   EB045704
     K04B58U  C2004 01 23.34146 09 22 39.41 +37 04 39.0          20.1   EB045704
     K04B58U  C2004 01 23.36724 09 22 34.89 +37 05 53.8          19.9   EB045704
     K04B58U  C2004 01 23.38010 09 22 32.63 +37 06 31.5          20.4   EB045704
     K04B58U  C2004 01 23.93060 09 20 58.54 +37 33 00.2          19.9 V EB045151
     K04B58U  C2004 01 23.93416 09 20 57.91 +37 33 11.0                 EB045246
     K04B58U  C2004 01 23.93536 09 20 57.73 +37 33 14.0                 EB045246
     K04B58U  C2004 01 23.93633 09 20 57.52 +37 33 16.9                 EB045246
     K04B58U  C2004 01 23.93686 09 20 57.49 +37 33 19.5          19.8 V EB045151
     K04B58U  C2004 01 23.93697 09 20 57.40 +37 33 19.2                 EB045246
     K04B58U  C2004 01 23.93786 09 20 57.31 +37 33 21.1                 EB045246
     K04B58U  C2004 01 23.94516 09 20 55.98 +37 33 42.1                 EB045118
     K04B58U  C2004 01 23.94741 09 20 55.52 +37 33 49.2                 EB045118
     K04B58U  C2004 01 23.95029 09 20 55.07 +37 33 57.6                 EB045118
     K04B58U 5C2004 01 24.21389 09 20 09.46 +37 46 38.9          19.5 R EB045673
     K04B58U 5C2004 01 24.21829 09 20 08.72 +37 46 51.8                 EB045673
     K04B58U 5C2004 01 24.22315 09 20 07.92 +37 47 05.6                 EB045673
     K04B58U 5C2004 01 24.22697 09 20 07.20 +37 47 17.0                 EB045673
     K04B58U 5C2004 01 24.23160 09 20 06.43 +37 47 30.1                 EB045673
     K04B58U  C2004 01 24.27092 09 19 59.23 +37 49 26.6          19.7   EB045704
     K04B58U  C2004 01 24.28396 09 19 56.80 +37 50 03.9          19.6   EB045704
     K04B58U  C2004 01 24.29697 09 19 54.52 +37 50 41.1          19.9   EB045704
     K04B58U  C2004 01 24.30979 09 19 52.22 +37 51 18.6          19.9   EB045704
     K04B58U  C2004 01 24.32269 09 19 49.90 +37 51 55.6          20.5   EB045704

Observer details:
118 Modra.  Observers S. Gajdos, J. Vilagi.  0.6-m f/5.5 reflector + CCD.
151 Eschenberg Observatory, Winterthur.  Observer M. Griesser.  0.40-m f/5.8
    Hypergraph + CCD.
246 Klet Observatory-KLENOT.  Observers J. Ticha, M. Tichy.  1.06-m KLENOT
    Telescope + CCD.
673 Table Mountain Observatory, Wrightwood.  Observer J. Young.  0.6-m
    reflector + CCD.
704 Lincoln Laboratory ETS, New Mexico.  Observers M. Blythe, F. Shelly,
    M. Bezpalko, R. Huber, L. Manguso, D. Torres, R. Kracke, M. McCleary,
    H. Stange, A. Milner.  Measurers J. Stuart, R. Sayer, J. Evans, J. Kommers.
    1.0-m f/2.15 reflector + CCD.

Orbital elements:
2004 BU58                                                            PHA 0.040
Epoch 2004 Jan. 16.0 TT = JDT 2453020.5                 MPC
M 215.20299              (2000.0)            P               Q
n   0.75996745     Peri.  177.03629     +0.45142362     +0.57634152
a   1.1892488      Node   118.72581     -0.83382473     +0.54430065
e   0.5360491      Incl.   50.96966     -0.31773109     -0.60956317
P   1.30           H   18.2           G   0.15
From 24 observations 2004 Jan. 23-24.

Ephemeris:
2004 BU58                a,e,i = 1.19, 0.54, 51                  q = 0.5518
Date    TT    R. A. (2000) Decl.     Delta      r     Elong.  Phase     V
2004 01 16    09 40.58   +31 11.8    0.842    1.775   153.0    14.6    19.9
2004 01 26    09 14.77   +39 12.0    0.800    1.751   157.6    12.4    19.7
2004 02 05    08 39.05   +46 30.5    0.800    1.721   148.9    17.2    19.8
2004 02 15    07 57.67   +51 51.1    0.837    1.686   134.9    24.5    20.1
2004 02 25    07 18.66   +54 56.5    0.901    1.646   121.0    31.0    20.4
2004 03 06    06 48.90   +56 23.2    0.980    1.601   108.5    36.0    20.6
2004 03 16    06 30.44   +56 57.7    1.063    1.550    97.7    39.5    20.9
2004 03 26    06 22.23   +57 11.6    1.142    1.494    88.3    41.9    21.0
2004 04 05    06 22.25   +57 21.5    1.210    1.432    80.2    43.5    21.1
2004 04 15    06 28.69   +57 33.4    1.262    1.364    73.0    44.7    21.1
2004 04 25    06 40.33   +57 48.3    1.296    1.290    66.8    45.8    21.1
2004 05 05    06 56.30   +58 05.0    1.307    1.210    61.4    47.0    21.0

Kyle E. Smalley              (C) Copyright 2004 MPC           M.P.E.C. 2004-B45

Read MPEC 2004-B44 Read MPEC 2004-B46


Our Web policy. Index to the CBAT/MPC/ICQ pages.

MPC